This demonstration page uses our WeatherBlox Daily Observations layout. Learn more.

Left ArrowRight Arrow

47.50024, -111.30081

Hourly Observations for April 2, 2018

Temp ( °F °C ) Dew Point ( °F °C ) Humidity (%) Winds ( mph kmh ) Pressure ( in mb ) Visibility ( mi km ) Precip ( " mm )
12:39 am 00:39 Cloudy 19 -7.2 15 -9.4 84 84 N 10 17 29.91 1013 10 16 0.00 0.00
12:53 am 00:53 Cloudy 19 -7.2 15 -9.4 84 84 N 9 15 29.85 1011 10 16 0.00 0.00
1:53 am 01:53 Cloudy with Light Snow 18 -7.8 15 -9.4 88 88 N 10 17 29.86 1011 4 6 0.00 0.03
2:07 am 02:07 Cloudy with Light Snow 18 -7.8 15 -9.4 88 88 N 8 13 29.91 1013 3 5 0.00 0.03
2:27 am 02:27 Cloudy with Light Snow 18 -7.8 15 -9.4 88 88 N 9 15 29.91 1013 5 8 0.00 0.03
2:34 am 02:34 Cloudy with Light Snow 18 -7.8 15 -9.4 88 88 NNW 7 11 29.91 1013 7 11 0.00 0.03
2:45 am 02:45 Cloudy 17 -8.3 15 -9.4 92 92 NNW 6 9 29.94 1014 9 14 0.00 0.03
2:53 am 02:53 Cloudy 18 -7.8 15 -9.4 88 88 N 6 9 29.86 1011 10 16 0.00 0.03
3:29 am 03:29 Cloudy 17 -8.3 14 -10 88 88 NNW 7 11 29.94 1014 10 16 0.00 0.00
3:38 am 03:38 Cloudy 17 -8.3 14 -10 88 88 NNW 8 13 29.94 1014 10 16 0.00 0.00
3:53 am 03:53 Cloudy 17 -8.3 14 -10 88 88 NNW 7 11 29.84 1011 10 16 0.00 0.00
4:07 am 04:07 Cloudy 17 -8.3 13 -10.6 84 84 N 8 13 29.94 1014 10 16 0.00 0.00
4:53 am 04:53 Cloudy 17 -8.3 13 -10.6 84 84 N 8 13 29.83 1010 10 16 0.00 0.00
5:53 am 05:53 Cloudy with Light Snow 16 -8.9 12 -11.1 84 84 N 10 17 29.83 1010 5 8 0.00 0.03
6:36 am 06:36 Cloudy 16 -8.9 13 -10.6 88 88 N 8 13 29.94 1014 10 16 0.00 0.03
6:50 am 06:50 Cloudy with Light Snow 16 -9 12 -11 86 86 N 8 13 29.94 1014 8 13 0.00 0.03
6:53 am 06:53 Cloudy with Light Snow 16 -8.9 12 -11.1 84 84 N 8 13 29.83 1010 8 13 0.00 0.03
7:05 am 07:05 Cloudy with Light Snow 16 -8.9 12 -11.1 84 84 N 9 15 29.91 1013 4 6 0.00 0.03
7:16 am 07:16 Cloudy with Light Snow 16 -8.9 13 -10.6 88 88 N 9 15 29.91 1013 3 5 0.01 0.25
7:34 am 07:34 Cloudy with Light Snow 16 -8.9 13 -10.6 88 88 NNW 10 17 29.94 1014 5 8 0.01 0.25
7:51 am 07:51 Cloudy with Light Snow 16 -9 12 -11 86 86 NNW 13 20 29.94 1014 2 3 0.01 0.25
7:53 am 07:53 Cloudy with Light Snow 16 -8.9 12 -11.1 84 84 NNW 10 17 29.84 1011 1 2 0.01 0.25
8:01 am 08:01 Mostly Cloudy with Snow 16 -8.9 13 -10.6 88 88 NNW 12 19 29.94 1014 1 1 0.00 0.03
8:15 am 08:15 Mostly Cloudy with Heavy Snow 15 -9.4 12 -11.1 88 88 WNW 12 19 29.94 1014 0 0 0.01 0.25
8:53 am 08:53 Mostly Cloudy with Snow 14 -10 11 -11.7 88 88 NW 15 24 29.90 1013 1 1 0.04 1.02
9:00 am 09:00 Mostly Cloudy with Snow 14 -10 11 -11.7 88 88 NW 16 26 30.00 1016 1 1 0.01 0.25
9:38 am 09:38 Mostly Cloudy with Snow 14 -10 11 -11.7 88 88 NNW 12 19 30.00 1016 1 1 0.02 0.51
9:53 am 09:53 Mostly Cloudy with Light Snow 14 -10 10 -12.2 84 84 NNW 12 19 29.93 1014 1 1 0.03 0.76
10:01 am 10:01 Cloudy with Light Snow 13 -10.6 10 -12.2 88 88 NNW 9 15 30.00 1016 1 2 0.00 0.03
10:09 am 10:09 Cloudy with Light Snow 14 -10 10 -12.2 84 84 NNW 9 15 30.00 1016 1 2 0.00 0.03
10:22 am 10:22 Cloudy with Light Snow 14 -10 10 -12.2 84 84 NNW 13 20 30.03 1017 1 1 0.01 0.25
10:31 am 10:31 Mostly Cloudy with Snow 14 -10 10 -12.2 84 84 NNW 13 20 30.03 1017 1 1 0.01 0.25
10:45 am 10:45 Mostly Cloudy with Snow 14 -10 10 -12.2 84 84 NW 13 20 30.03 1017 1 1 0.02 0.51
10:53 am 10:53 Mostly Cloudy with Light Snow 13 -10.6 10 -12.2 88 88 WNW 15 24 29.97 1015 1 1 0.02 0.51
11:53 am 11:53 Cloudy with Light Snow 13 -10.6 9 -12.8 84 84 NW 15 24 29.99 1016 1 1 0.01 0.25
12:07 pm 12:07 Cloudy with Light Snow 14 -10 9 -12.8 80 80 NNW 16 26 30.06 1018 2 2 0.00 0.03
12:53 pm 12:53 Cloudy with Light Snow 15 -9.4 9 -12.8 77 77 N 16 26 30.01 1016 3 5 0.01 0.25
1:50 pm 13:50 Cloudy with Light Snow 16 -9 9 -13 73 73 NNW 17 28 30.12 1020 2 3 0.00 0.03
1:53 pm 13:53 Cloudy with Light Snow 15 -9.4 9 -12.8 77 77 NNW 16 26 30.05 1018 2 3 0.00 0.03
2:19 pm 14:19 Cloudy with Light Snow 16 -8.9 10 -12.2 77 77 NNW 16 26 30.15 1021 2 3 0.00 0.03
2:37 pm 14:37 Cloudy with Light Snow 17 -8.3 10 -12.2 74 74 NNW 16 26 30.12 1020 3 4 0.00 0.03
2:51 pm 14:51 Cloudy with Light Snow 16 -9 10 -12 79 79 NNW 17 28 30.15 1021 2 3 0.00 0.03
2:53 pm 14:53 Cloudy with Light Snow 17 -8.3 10 -12.2 74 74 NNW 16 26 30.08 1019 2 3 0.00 0.03
3:17 pm 15:17 Cloudy with Light Snow 16 -8.9 10 -12.2 77 77 N 14 22 30.15 1021 2 3 0.00 0.03
3:29 pm 15:29 Cloudy with Light Snow 16 -8.9 11 -11.7 80 80 NNW 17 28 30.15 1021 1 2 0.00 0.03
3:53 pm 15:53 Cloudy with Light Snow 16 -8.9 10 -12.2 77 77 N 17 28 30.10 1019 2 2 0.00 0.03
3:58 pm 15:58 Cloudy with Light Snow 16 -8.9 10 -12.2 77 77 N 16 26 30.18 1022 3 5 0.00 0.03
4:07 pm 16:07 Cloudy with Light Snow 16 -8.9 10 -12.2 77 77 N 17 28 30.18 1022 3 4 0.00 0.03
4:20 pm 16:20 Cloudy with Light Snow 15 -9.4 10 -12.2 80 80 N 16 26 30.18 1022 2 2 0.00 0.03
4:46 pm 16:46 Cloudy with Light Snow 15 -9.4 10 -12.2 80 80 N 16 26 30.18 1022 1 2 0.00 0.03
4:53 pm 16:53 Cloudy with Light Snow 15 -9.4 9 -12.8 77 77 N 16 26 30.14 1021 2 2 0.00 0.03
5:05 pm 17:05 Cloudy with Light Snow 15 -9.4 11 -11.7 84 84 N 12 19 30.18 1022 1 2 0.00 0.03
5:27 pm 17:27 Cloudy with Light Snow 16 -8.9 11 -11.7 80 80 N 10 17 30.21 1023 2 3 0.00 0.03
5:36 pm 17:36 Cloudy with Light Snow 15 -9.4 8 -13.3 74 74 NNE 12 19 30.21 1023 3 5 0.00 0.03
5:53 pm 17:53 Cloudy 15 -9.4 9 -12.8 77 77 N 9 15 30.17 1022 8 13 0.00 0.03
6:10 pm 18:10 Cloudy with Light Snow 15 -9.4 10 -12.2 80 80 N 8 13 30.21 1023 2 2 0.00 0.03
6:22 pm 18:22 Cloudy with Light Snow 15 -9.4 10 -12.2 80 80 NNE 10 17 30.21 1023 1 2 0.00 0.03
6:37 pm 18:37 Mostly Cloudy with Light Snow 14 -10 9 -12.8 80 80 N 9 15 30.27 1025 2 2 0.00 0.03
6:46 pm 18:46 Cloudy with Light Snow 14 -10 9 -12.8 80 80 N 8 13 30.27 1025 1 2 0.00 0.03
6:53 pm 18:53 Cloudy with Light Snow 14 -10 10 -12.2 84 84 N 8 13 30.21 1023 1 2 0.00 0.03
7:31 pm 19:31 Mostly Cloudy with Light Snow 13 -10.6 10 -12.2 88 88 N 8 13 30.27 1025 1 2 0.00 0.03
7:53 pm 19:53 Cloudy with Light Snow 11 -11.7 9 -12.8 92 92 N 5 7 30.24 1024 2 2 0.00 0.03
8:04 pm 20:04 Cloudy with Light Snow 9 -12.8 7 -13.9 92 92 N 7 11 30.36 1028 2 3 0.00 0.03
8:18 pm 20:18 Cloudy with Light Snow 8 -13.3 7 -13.9 95 95 N 7 11 30.36 1028 2 3 0.00 0.03
8:44 pm 20:44 Cloudy with Light Snow 8 -13.3 6 -14.4 92 92 N 6 9 30.36 1028 8 13 0.00 0.03
8:53 pm 20:53 Cloudy 8 -13.3 6 -14.4 92 92 N 6 9 30.27 1025 10 16 0.00 0.03
9:31 pm 21:31 Cloudy with Light Snow 11 -11.7 8 -13.3 88 88 N 3 6 30.36 1028 2 2 0.00 0.03
9:48 pm 21:48 Cloudy with Light Snow 10 -12 9 -13 92 92 NNW 5 7 30.36 1028 2 2 0.01 0.25
9:53 pm 21:53 Cloudy with Light Snow 11 -11.7 8 -13.3 88 88 NNW 5 7 30.29 1026 2 2 0.01 0.25
10:10 pm 22:10 Cloudy with Light Snow 10 -12.2 8 -13.3 92 92 NNW 3 6 30.36 1028 2 3 0.00 0.03
10:31 pm 22:31 Cloudy with Light Snow 10 -12.2 7 -13.9 87 87 Calm 30.36 1028 5 8 0.00 0.03
10:53 pm 22:53 Cloudy with Mist and Fog 10 -12.2 8 -13.3 92 92 Calm 30.30 1026 4 6 0.00 0.03
11:53 pm 23:53 Mostly Cloudy 6 -14.4 5 -15 95 95 S 6 9 30.32 1027 9 14 0.00 0.00

Powered by AerisWeather